Concord, NC

3:13 AM EST on December 08, 2016 (GMT -0500)
Concord Regional

Weather History for KJQF - January, 2014

Change the Weather History Date:

Monday, January 27, 2014

  Actual Average (KCLT) Record (KCLT)
Temperature  
Mean Temperature 50 °F 41 °F  
Max Temperature 64 °F 52 °F 75 °F (1890)
Min Temperature 35 °F 30 °F 6 °F (1940)
Degree Days  
Heating Degree Days 16 24  
Month to date heating degree days 672  
Since 1 July heating degree days 2009  
Cooling Degree Days 0 0  
Month to date cooling degree days 0  
Year to date cooling degree days 0  
Moisture  
Dew Point 28 °F    
Average Humidity 48    
Maximum Humidity 61    
Minimum Humidity 30    
Precipitation  
Precipitation 0.00 in 0.10 in 1.51 in (1996)
Month to date precipitation 2.98  
Year to date precipitation 2.98  
Snow  
Snow 0.00 in 0.00 in 1.50 in (1921)
Month to date snowfall 1.8  
Since 1 July snowfall 2.2  
Snow Depth -    
Sea Level Pressure  
Sea Level Pressure 29.93 in    
Wind  
Wind Speed 9 mph (West)    
Max Wind Speed 15 mph    
Max Gust Speed 21 mph    
Visibility 10 miles    
Events      
T = Trace of Precipitation, MM = Missing Value Source: NWS Daily Summary

Daily Weather History Graph

Daily Weather History Graph

Search for Another Location

Airport or City:

Trip Planner

Search our weather history database for the weather conditions in past years. The results will help you decide how hot, cold, wet, or windy it might be!

Date:

Astronomy

Jan. 27, 2014 Rise Set
Actual Time 7:25 AM EST 5:45 PM EST
Civil Twilight 6:58 AM EST 6:12 PM EST
Nautical Twilight 6:28 AM EST 6:43 PM EST
Astronomical Twilight 5:58 AM EST 7:13 PM EST
Moon 4:04 AM EST (1/27) 2:31 PM EST (1/27)
Length of Visible Light 11h 13m
Length of Day
10h 19m
Waning Crescent, 15% of the Moon is Illuminated
Jan 27
Waning Crescent
Jan 30
New
Feb 6
First Quarter
Feb 14
Full
Feb 22
Last Quarter

Hourly Weather History & Observations

Time (EST) Temp. Windchill Dew Point Humidity Pressure Visibility Wind Dir Wind Speed Gust Speed Precip Events Conditions
12:15 AM 46.4 °F 42.4 °F 28.4 °F 50% 29.89 in 10.0 mi SSW 8.1 mph - N/A   Clear
12:35 AM 46.4 °F 41.5 °F 30.2 °F 53% 29.88 in 10.0 mi SSW 10.4 mph - N/A   Clear
1:15 AM 46.4 °F 42.9 °F 28.4 °F 50% 29.88 in 10.0 mi SW 6.9 mph - N/A   Clear
1:35 AM 46.4 °F 42.9 °F 30.2 °F 53% 29.88 in 10.0 mi SW 6.9 mph - N/A   Mostly Cloudy
1:55 AM 44.6 °F 41.4 °F 28.4 °F 53% 29.88 in 10.0 mi SSW 5.8 mph - N/A   Scattered Clouds
2:15 AM 44.6 °F 40.2 °F 28.4 °F 53% 29.88 in 10.0 mi SSW 8.1 mph - N/A   Clear
2:35 AM 46.4 °F 42.9 °F 28.4 °F 50% 29.88 in 10.0 mi SSW 6.9 mph - N/A   Clear
2:55 AM 46.4 °F 42.4 °F 28.4 °F 50% 29.88 in 10.0 mi SSW 8.1 mph - N/A   Scattered Clouds
3:15 AM 48.2 °F - 30.2 °F 50% 29.88 in 10.0 mi SW 10.4 mph 17.3 mph N/A   Mostly Cloudy
3:35 AM 48.2 °F - 30.2 °F 50% 29.88 in 10.0 mi SW 12.7 mph 20.7 mph N/A   Mostly Cloudy
3:55 AM 48.2 °F - 30.2 °F 50% 29.89 in 10.0 mi SW 11.5 mph 18.4 mph N/A   Overcast
4:15 AM 48.2 °F - 30.2 °F 50% 29.88 in 10.0 mi SW 12.7 mph - N/A   Overcast
4:35 AM 48.2 °F - 30.2 °F 50% 29.87 in 10.0 mi SSW 13.8 mph - N/A   Overcast
4:55 AM 48.2 °F - 30.2 °F 50% 29.87 in 10.0 mi SSW 11.5 mph - N/A   Overcast
5:15 AM 48.2 °F - 30.2 °F 50% 29.86 in 10.0 mi SW 8.1 mph - N/A   Overcast
5:35 AM 48.2 °F - 30.2 °F 50% 29.86 in 10.0 mi SW 6.9 mph - N/A   Overcast
5:55 AM 46.4 °F 42.4 °F 30.2 °F 53% 29.86 in 10.0 mi SW 8.1 mph - N/A   Overcast
6:15 AM 48.2 °F - 30.2 °F 50% 29.86 in 10.0 mi SW 11.5 mph 16.1 mph N/A   Overcast
6:35 AM 48.2 °F - 30.2 °F 50% 29.87 in 10.0 mi SW 6.9 mph - N/A   Mostly Cloudy
8:55 AM 51.8 °F - 30.2 °F 44% 29.88 in 10.0 mi SW 6.9 mph - N/A   Clear
9:55 AM 55.4 °F - 28.4 °F 36% 29.89 in 10.0 mi SW 6.9 mph - N/A   Partly Cloudy
10:51 AM 55.4 °F - 28.4 °F 36% 29.89 in 10.0 mi West 6.9 mph - N/A   Clear
11:59 AM 59.0 °F - 30.2 °F 34% 29.87 in 10.0 mi SW 6.9 mph - N/A   Clear
12:55 PM 60.8 °F - 30.2 °F 31% 29.85 in 10.0 mi SW 4.6 mph - N/A   Scattered Clouds
1:55 PM 62.6 °F - 32.0 °F 32% 29.83 in 10.0 mi WSW 5.8 mph - N/A   Scattered Clouds
2:55 PM 62.6 °F - 32.0 °F 32% 29.83 in 10.0 mi SSW 5.8 mph - N/A   Scattered Clouds
3:55 PM 64.4 °F - 32.0 °F 30% 29.84 in 10.0 mi West 9.2 mph - N/A   Scattered Clouds
4:55 PM 60.8 °F - 33.8 °F 36% 29.87 in 10.0 mi NW 9.2 mph - N/A   Scattered Clouds
5:55 PM 55.4 °F - 32.0 °F 41% 29.90 in 10.0 mi North 5.8 mph - N/A   Scattered Clouds
6:55 PM 51.8 °F - 30.2 °F 44% 29.92 in 10.0 mi NNW 4.6 mph - N/A   Clear
7:55 PM 48.2 °F - 30.2 °F 50% 29.97 in 10.0 mi North 15.0 mph - N/A   Mostly Cloudy
8:15 PM 48.2 °F - 30.2 °F 50% 29.98 in 10.0 mi North 9.2 mph - N/A   Overcast
8:35 PM 44.6 °F 38.8 °F 30.2 °F 57% 29.99 in 10.0 mi North 11.5 mph - N/A   Mostly Cloudy
8:55 PM 42.8 °F 37.5 °F 28.4 °F 57% 30.00 in 10.0 mi North 9.2 mph - N/A   Mostly Cloudy
9:15 PM 41.0 °F 33.5 °F 26.6 °F 57% 30.01 in 10.0 mi North 13.8 mph - N/A   Mostly Cloudy
9:35 PM 41.0 °F 35.2 °F 28.4 °F 61% 30.03 in 10.0 mi North 9.2 mph - N/A   Scattered Clouds
9:55 PM 39.2 °F 31.6 °F 26.6 °F 61% 30.05 in 10.0 mi North 12.7 mph 16.1 mph N/A   Scattered Clouds
10:15 PM 39.2 °F 33.0 °F 26.6 °F 61% 30.06 in 10.0 mi North 9.2 mph - N/A   Clear
10:35 PM 37.4 °F 30.8 °F 21.2 °F 52% 30.07 in 10.0 mi North 9.2 mph 20.7 mph N/A   Clear
10:52 PM 37.4 °F 28.9 °F 17.6 °F 45% 30.08 in 10.0 mi NNE 13.8 mph 20.7 mph N/A   Clear
10:55 PM 37.4 °F 29.8 °F 19.4 °F 48% 30.08 in 10.0 mi North 11.5 mph 17.3 mph N/A   Clear
11:15 PM 37.4 °F 29.8 °F 17.6 °F 45% 30.08 in 10.0 mi North 11.5 mph 17.3 mph N/A   Clear
11:35 PM 35.6 °F 29.2 °F 17.6 °F 48% 30.09 in 10.0 mi North 8.1 mph - N/A   Clear
11:55 PM 35.6 °F 29.2 °F 17.6 °F 48% 30.10 in 10.0 mi North 8.1 mph - N/A   Clear